Voltar ao catálogo

NOAA 16 DEB

AtivoPO
NORAD 41503·DEBRIS·🇺🇸 United States

Lançado Sep 21, 2000 de Vandenberg Space Force Base

Loading…

Próximas Passagens (próximas 24 horas)

TLE

EnvelhecendoSource: Space-Track

Época: Sep 9, 2026, 16:20 UTC

1 41503U 00055MB  26252.68120739  .00009142  00000-0  17128-2 0  9993
2 41503  98.7773  45.4533 0021294 159.3543 200.8523 14.64893288548345

Acompanhe NOAA 16 DEB em tempo real com AllMySat

Download on the App Store